Wind_Speed
18 19 19 19 19 19 19 19 19 19 19 20 20 21 21 21 21 21 21 21 21 21 21 21 22 22 22 22 22 23 23 23 26 24 21 23 28 29 26 24 23 23 22 22 21 18 18 14 12 12 10 6 4 3 5 5 3 2 2 5 7 7 7 5 5 5 3 3 3 5 3 3 4 2 2 2 4 4 5 5 3 4 5 3 8 22 32 29
18 18 18 18 19 19 19 19 19 19 19 19 20 20 21 21 21 22 22 22 22 21 21 21 22 22 22 22 21 22 23 26 26 23 28 33 34 32 29 27 24 25 24 22 22 16 11 9 8 8 5 1 3 3 5 4 4 6 4 6 9 8 7 5 7 6 3 3 5 7 4 3 4 2 2 4 4 4 7 3 4 5 6 6 12 26 30 28
17 18 18 18 19 19 19 18 18 18 19 19 20 20 21 21 22 22 23 23 23 22 22 22 22 22 22 22 21 21 23 24 18 20 27 23 21 23 24 27 25 25 26 25 25 19 13 12 7 5 2 2 3 4 6 5 5 7 5 8 11 8 7 9 10 10 7 4 6 9 5 2 4 1 2 3 8 7 8 4 2 4 4 8 12 20 26 26
17 18 18 18 19 19 19 19 19 19 19 20 20 21 21 22 22 23 23 24 23 23 22 22 22 21 21 21 20 20 19 16 10 10 9 10 6 10 10 17 21 23 28 30 27 21 16 11 4 1 2 3 3 5 7 7 5 5 9 11 9 8 9 12 13 12 9 5 4 6 5 5 4 2 2 4 7 4 6 9 10 11 11 12 12 16 22 21
17 18 18 18 19 19 20 20 20 19 20 20 20 21 22 23 23 23 24 24 23 22 22 22 21 21 20 19 18 17 12 7 4 3 9 12 11 18 17 18 20 19 23 29 26 20 16 9 3 2 3 3 3 3 7 10 5 3 11 13 8 9 12 13 12 11 7 4 4 4 5 4 4 1 4 7 9 6 8 11 11 14 16 17 16 16 17 17
17 18 18 18 19 20 21 21 20 20 21 21 21 21 22 23 23 24 24 24 23 22 21 21 21 20 19 18 16 11 2 3 8 2 2 8 22 32 31 27 25 23 21 22 23 18 13 8 5 4 3 3 5 6 6 9 8 7 9 11 10 11 12 10 9 8 4 3 4 3 3 1 3 5 4 8 10 8 7 9 10 13 18 20 18 16 16 16
18 18 19 19 19 20 21 21 20 21 21 21 22 22 23 24 24 24 23 24 23 21 21 20 20 19 18 17 12 6 3 9 22 24 20 27 36 37 33 31 27 24 21 15 21 14 10 10 8 6 4 4 6 8 7 7 10 12 9 9 13 14 13 9 8 8 5 5 5 3 4 4 3 5 3 4 9 8 5 6 9 10 15 17 17 17 18 18
18 19 19 20 20 20 21 21 20 21 21 22 23 23 24 25 24 24 23 23 22 21 19 18 19 17 16 13 7 5 5 18 35 37 31 34 35 28 25 27 24 19 16 11 18 14 10 12 11 6 5 6 5 5 5 6 10 14 13 9 9 13 15 11 9 9 10 9 5 5 7 9 7 3 4 7 10 8 5 6 11 10 12 14 16 18 17 17
18 19 20 20 21 21 21 21 21 21 22 23 23 24 25 25 25 23 22 22 21 19 18 18 17 15 13 8 3 6 11 22 31 28 24 25 24 20 19 21 20 15 13 11 16 18 13 11 11 7 5 7 7 6 4 4 7 10 12 10 8 11 13 12 12 11 13 10 4 7 10 12 6 1 5 9 9 8 3 6 13 13 14 14 14 16 16 16
19 19 20 21 21 21 21 22 23 23 24 24 25 26 26 27 26 24 22 21 19 18 17 17 15 13 10 5 4 8 11 13 12 13 16 18 20 21 20 18 18 14 12 10 12 18 15 9 8 5 4 5 6 8 6 6 5 7 8 9 10 12 10 12 15 14 14 10 10 11 11 12 5 3 4 8 5 3 2 6 13 14 15 15 14 14 14 15
19 20 21 21 22 22 23 24 25 25 25 26 27 28 28 28 27 25 22 19 18 17 16 15 15 13 8 4 6 9 6 5 4 11 17 18 21 24 23 19 17 14 10 9 10 16 17 12 8 3 3 4 4 6 7 5 4 8 7 7 9 11 10 12 15 14 11 9 13 14 12 14 7 2 8 11 6 2 2 6 12 13 13 13 14 13 11 12
20 21 21 22 23 24 26 26 25 26 26 28 29 29 30 29 28 25 20 17 17 16 15 14 14 11 7 5 10 14 12 11 15 21 23 23 26 27 23 21 20 16 13 11 10 12 12 13 10 5 4 3 3 4 4 2 2 6 5 5 8 8 10 14 14 13 11 8 10 12 9 13 12 11 12 13 9 2 3 6 10 12 11 11 11 10 9 10
21 21 22 24 25 25 25 25 26 27 28 30 30 30 30 28 26 23 19 16 16 15 13 11 11 9 6 5 9 16 20 21 23 25 26 25 26 27 25 22 23 20 15 13 13 11 9 10 10 9 5 1 3 4 4 5 2 4 4 4 6 6 9 14 12 10 11 8 10 12 7 12 14 16 15 15 13 7 6 7 7 9 9 10 10 9 9 9
21 22 23 25 25 25 26 27 28 28 29 31 30 29 28 25 24 21 17 14 14 13 11 10 9 5 4 7 13 17 18 18 19 22 24 23 24 26 25 22 21 19 16 14 15 14 12 13 9 8 5 3 4 7 8 5 2 2 3 4 4 5 8 12 11 10 11 7 11 13 10 11 11 15 18 17 15 11 9 8 7 7 7 8 9 10 10 10
21 23 24 25 25 26 27 28 29 30 31 31 30 27 25 25 23 17 13 12 12 11 10 10 8 4 4 9 13 15 15 14 16 19 19 20 21 22 21 18 15 15 16 16 14 13 12 11 6 6 4 4 4 5 6 4 2 2 5 6 5 8 8 8 10 12 13 7 11 13 9 8 8 11 17 18 17 13 11 10 8 7 7 8 9 9 10 10
22 23 24 24 25 26 27 27 30 32 31 30 28 25 26 25 17 12 11 10 10 11 10 7 3 2 4 7 8 10 10 10 13 16 16 17 17 19 21 15 11 11 12 14 12 9 7 6 4 4 3 3 5 3 3 3 3 3 6 8 8 10 8 5 8 12 14 7 9 14 9 4 5 8 13 17 18 14 11 10 8 8 8 8 8 8 9 9
23 23 24 24 25 26 26 28 31 32 31 29 26 25 27 19 12 12 8 5 8 11 8 3 2 2 5 8 8 7 7 8 11 13 15 17 16 18 18 11 7 7 7 8 7 5 3 3 3 3 3 4 4 4 3 4 6 4 5 8 10 12 10 7 6 9 15 12 10 13 11 6 4 5 10 13 16 16 14 12 10 8 7 7 8 8 9 9
23 23 24 25 25 26 27 30 31 31 30 26 24 27 24 13 11 9 1 5 13 9 4 2 1 2 5 7 6 5 7 10 14 16 17 15 14 13 12 10 4 3 4 4 4 3 3 2 2 2 3 4 5 6 7 8 9 7 7 8 10 11 11 12 7 5 12 15 13 12 12 11 6 4 8 10 12 14 14 13 13 12 10 7 8 9 9 9
23 24 25 25 26 27 29 30 30 30 29 25 24 25 17 9 6 1 7 12 13 2 1 3 1 2 8 9 8 11 15 16 15 14 11 10 10 8 7 8 3 1 3 2 3 4 4 3 1 3 5 6 8 9 11 10 8 7 5 4 7 9 10 10 6 4 8 10 12 13 13 12 9 6 8 9 10 11 11 11 13 16 13 9 9 9 10 11
23 24 26 26 27 28 29 29 28 29 27 25 25 19 10 9 4 1 5 9 3 5 5 7 4 6 12 12 11 15 16 15 11 7 7 6 6 5 3 4 1 2 4 3 4 1 2 4 3 5 8 12 15 15 14 11 8 6 3 3 3 4 6 4 3 5 7 8 10 13 15 15 12 9 8 9 9 10 10 11 12 15 14 12 13 12 11 12
23 25 26 26 27 28 29 29 28 27 23 21 20 10 4 7 4 4 7 3 5 8 9 13 12 10 14 17 19 17 11 9 8 8 12 10 2 2 3 3 3 4 6 5 5 2 0 3 4 7 9 9 10 13 14 13 11 9 4 3 4 3 4 3 4 5 5 7 8 11 15 17 14 11 9 9 10 10 12 12 13 14 13 12 13 14 12 11
24 25 26 27 27 28 28 29 28 23 17 15 15 7 3 7 6 7 6 4 8 8 9 12 11 9 14 18 20 15 6 5 8 9 11 7 1 2 2 2 4 4 4 4 4 3 3 5 7 7 3 3 3 5 9 12 12 10 4 3 5 3 3 5 4 4 2 4 5 8 12 14 14 13 12 13 12 11 11 12 13 14 14 13 12 12 11 9
25 25 26 26 27 28 28 29 24 15 15 17 10 5 8 13 12 8 4 4 9 7 4 6 4 4 7 8 9 7 4 4 6 8 4 3 0 0 2 3 5 4 3 6 6 6 5 5 7 7 3 1 3 3 7 8 9 8 5 4 5 3 2 2 3 3 3 4 5 6 7 10 11 10 12 14 14 13 11 13 13 13 14 14 13 11 11 11
25 26 26 26 26 27 29 27 17 13 19 16 4 5 14 17 15 9 3 3 6 6 4 4 3 3 4 4 6 4 2 2 4 6 2 4 1 1 2 3 4 3 4 8 8 8 8 4 1 0 2 2 3 4 5 6 6 7 8 7 7 5 3 4 3 4 5 5 7 6 6 7 7 9 11 11 13 16 14 14 13 10 11 11 9 9 10 12
26 27 26 26 26 26 27 20 11 17 21 9 2 12 18 17 15 10 3 1 4 6 4 2 2 2 4 5 5 2 2 2 4 5 5 4 2 0 1 2 3 4 6 8 8 7 10 7 1 2 0 1 0 3 5 6 5 7 8 10 10 6 4 6 6 5 4 4 6 7 9 8 6 9 11 9 12 16 14 15 15 11 9 9 8 9 10 10
27 27 27 27 25 26 22 9 10 20 16 5 9 18 17 14 13 8 3 3 3 5 4 4 1 3 6 5 3 2 1 2 5 3 4 3 1 1 1 1 1 3 5 5 4 4 4 4 5 4 3 1 2 4 5 7 5 5 6 10 11 8 6 8 7 3 1 3 3 3 6 9 7 8 10 9 12 15 15 15 16 13 11 10 10 10 9 9
26 26 27 26 25 25 15 6 13 17 6 6 16 19 15 13 11 5 3 4 4 3 4 4 2 5 7 5 4 3 2 4 6 3 2 3 3 1 1 1 2 2 1 1 0 1 1 6 8 7 6 3 2 3 3 4 5 4 2 6 10 10 10 10 7 4 3 4 7 3 1 5 8 7 8 10 12 14 15 15 15 14 14 13 12 11 10 10
27 27 26 25 25 20 11 9 14 11 6 12 18 18 15 13 9 3 5 4 3 1 1 4 5 5 5 4 3 2 3 5 4 1 1 0 1 1 1 3 3 1 1 1 1 0 2 5 6 6 6 4 4 6 4 2 3 2 4 2 8 10 12 11 7 6 4 4 8 5 3 3 8 5 6 10 13 14 15 16 17 16 16 14 13 12 11 10
28 27 25 24 21 13 8 9 9 8 11 16 17 17 15 11 6 3 6 2 2 2 1 2 6 6 5 6 4 1 2 2 1 2 1 2 1 0 1 3 2 1 1 1 2 2 1 2 2 2 4 3 3 6 6 6 6 3 7 6 4 5 7 8 7 6 6 6 8 8 5 4 6 4 5 7 10 14 14 14 15 16 16 14 12 11 10 9
28 27 25 22 17 11 10 10 7 9 14 15 16 16 12 6 3 5 5 1 1 3 2 3 7 7 9 9 5 2 2 2 2 4 3 1 3 2 1 2 0 0 1 1 1 4 3 1 1 2 3 2 0 1 5 8 6 3 7 6 3 2 1 1 2 4 6 8 10 12 11 6 5 4 6 5 7 10 12 11 12 13 13 12 10 9 9 9
28 27 24 18 13 11 11 9 9 12 14 14 15 12 6 3 4 6 2 2 1 4 4 5 7 8 10 8 4 4 5 4 4 3 4 3 3 3 1 0 2 2 2 2 1 4 4 1 2 3 4 4 2 1 0 2 3 2 2 3 3 3 1 2 2 2 5 9 9 12 12 10 8 5 5 5 6 9 10 10 12 12 10 9 8 8 9 8
29 25 18 11 8 7 7 8 12 13 12 13 12 6 3 4 3 2 2 3 2 3 4 6 9 9 10 6 4 6 5 4 5 3 3 4 3 3 2 1 2 2 3 3 3 4 3 2 2 1 1 4 4 2 2 2 2 4 3 2 1 2 3 2 2 2 5 7 5 6 9 9 10 8 6 7 7 8 9 9 10 10 8 8 8 8 7 6
28 18 9 4 4 6 7 10 12 10 10 10 6 3 5 5 2 1 2 3 1 4 4 5 10 10 7 4 5 6 4 3 5 6 4 3 4 4 3 2 2 2 1 1 3 3 3 3 1 2 2 2 5 4 2 1 3 4 4 3 3 4 4 5 5 4 6 7 3 4 5 6 8 8 10 12 11 9 8 7 7 8 9 9 8 8 7 7
21 10 5 5 5 9 11 10 9 7 8 7 3 5 6 3 1 1 2 2 3 4 4 4 9 9 4 3 3 5 3 3 6 8 6 4 5 4 4 4 3 2 0 1 2 1 2 4 2 1 2 2 5 6 4 4 4 4 3 2 3 3 3 4 5 5 7 7 3 2 4 6 6 5 8 14 14 10 8 7 8 7 7 7 6 6 7 8
14 4 3 6 7 11 11 8 6 5 6 5 4 5 5 2 3 1 1 4 2 3 5 5 6 5 5 4 3 4 3 3 6 7 5 5 4 3 4 4 4 2 1 1 2 1 1 2 4 3 2 4 4 4 1 4 3 3 3 2 4 4 2 2 3 5 5 5 3 3 4 5 5 5 4 5 7 10 10 9 8 7 7 7 6 7 8 8
9 2 3 7 11 12 10 6 3 4 4 4 5 4 2 3 3 2 1 3 2 3 6 6 4 3 5 4 3 5 4 2 5 5 4 4 3 3 3 3 4 3 2 1 2 2 2 3 6 6 3 4 3 3 2 0 1 1 4 2 2 2 4 3 5 3 4 5 3 4 5 5 6 7 5 2 3 7 10 9 9 10 10 9 8 8 9 9
11 5 4 9 13 12 9 4 2 3 4 5 5 2 0 2 3 3 1 3 2 3 3 3 3 2 3 4 3 6 6 4 4 4 4 5 3 3 3 3 3 3 1 0 1 1 1 4 7 4 4 5 3 3 3 3 2 1 2 1 2 3 3 1 4 2 3 5 3 7 9 8 7 6 5 6 6 5 7 8 9 11 10 10 10 9 9 9
10 5 3 9 14 12 7 4 2 3 3 5 4 2 1 1 1 1 2 3 3 3 2 1 1 2 2 3 3 6 6 4 5 5 4 3 2 2 3 3 4 4 4 2 2 1 1 3 5 1 2 6 4 3 3 5 2 3 1 1 2 1 1 2 2 3 4 4 3 7 9 8 8 6 5 10 12 10 10 9 9 10 11 11 12 12 12 10
6 3 1 8 14 10 4 2 3 3 4 4 2 1 0 1 3 2 2 3 2 1 1 2 1 2 2 1 3 4 4 3 4 4 2 2 3 2 2 1 3 4 4 3 2 1 1 1 4 3 2 4 3 3 1 3 2 0 2 2 1 1 2 2 2 2 2 4 4 5 6 6 7 7 7 9 11 11 12 10 7 10 11 10 11 11 12 12
5 2 1 8 13 8 3 3 3 5 4 2 1 1 1 1 3 4 3 2 1 1 2 2 1 2 2 2 3 3 1 3 4 2 1 1 3 3 1 0 3 5 5 4 2 1 1 1 3 4 5 3 2 1 3 1 1 1 2 3 2 1 1 1 2 2 2 3 3 3 4 3 3 4 7 9 9 9 10 10 9 10 10 10 9 9 10 11
4 3 2 10 12 7 4 4 3 3 2 1 1 1 2 0 1 4 4 2 1 2 2 2 1 1 2 3 3 2 2 3 2 1 2 2 1 2 2 5 5 7 5 5 4 1 1 1 2 4 4 2 4 5 4 4 4 2 2 2 2 3 4 4 3 3 2 3 4 5 6 5 4 3 2 4 6 6 6 8 9 10 11 10 10 9 10 10
4 2 3 10 12 7 4 3 1 1 2 0 0 1 3 2 1 3 4 3 2 2 1 1 2 2 2 2 2 2 2 3 3 1 2 3 1 3 3 7 7 6 5 4 4 3 2 1 2 4 4 5 10 9 4 5 4 1 1 1 1 1 2 3 4 2 2 3 4 5 7 5 5 4 4 6 6 7 6 6 7 8 9 8 8 9 9 10
3 1 4 9 11 7 5 3 3 2 1 2 2 1 3 2 1 2 3 4 3 2 1 1 2 2 2 2 1 2 3 2 3 2 2 3 3 5 6 7 7 6 5 3 3 4 3 1 2 5 4 5 9 7 2 1 2 1 1 1 1 0 1 1 3 3 3 4 4 4 4 4 4 6 7 8 9 9 8 6 6 8 9 8 9 9 9 10
0 2 3 8 11 6 3 2 2 2 2 4 4 4 4 1 1 2 3 3 2 2 2 2 2 2 2 2 1 2 3 1 1 2 3 2 3 5 6 6 6 5 3 2 2 3 2 1 2 5 6 6 7 6 5 5 2 1 2 2 1 2 2 1 3 3 3 3 2 2 4 4 4 7 10 12 14 14 14 11 7 7 7 7 8 8 8 9
2 1 3 7 11 7 2 1 1 1 2 4 4 5 4 2 2 3 4 4 2 2 2 3 3 2 2 2 2 3 3 2 2 3 3 2 3 5 5 5 7 4 4 7 4 1 1 2 1 1 3 4 5 4 2 4 4 2 3 5 3 3 3 2 2 3 3 3 3 2 4 8 10 10 10 12 14 15 17 17 13 8 6 6 7 7 8 7
1 2 2 5 7 6 2 1 3 1 2 3 3 4 2 2 4 5 4 2 3 3 2 3 3 2 3 5 5 5 4 3 3 2 4 4 3 3 3 6 7 6 10 13 5 3 1 2 3 4 6 6 7 8 5 4 6 7 8 9 7 6 4 3 2 3 4 6 7 5 5 11 17 16 9 8 10 12 14 16 16 12 8 7 7 8 9 8
2 1 1 2 3 4 2 3 4 2 2 2 1 2 3 3 4 4 3 2 4 6 3 2 2 5 6 8 6 5 5 5 6 4 5 6 4 3 6 8 7 7 9 8 2 4 1 2 4 7 9 11 12 13 10 7 9 11 12 12 12 10 7 4 5 7 4 4 7 8 7 10 17 17 10 7 11 13 13 14 14 14 14 12 10 9 11 11
1 1 0 1 1 1 1 2 3 3 3 1 1 1 2 3 3 4 4 3 4 5 3 2 4 8 7 6 4 5 7 8 8 4 4 7 7 8 8 7 6 4 4 4 2 4 1 3 4 6 10 12 12 13 11 8 9 11 11 13 13 12 10 8 11 12 7 5 9 12 12 13 16 18 14 11 12 13 14 15 14 13 15 17 14 12 12 13
1 1 1 1 2 2 2 3 3 3 3 2 1 2 2 2 4 2 3 4 4 3 1 2 4 7 7 5 2 3 5 5 6 4 5 7 8 9 9 6 4 3 5 5 4 1 1 3 3 4 9 11 10 11 10 8 9 11 12 14 14 14 14 13 14 15 13 11 13 15 16 15 14 17 18 15 12 12 13 12 13 14 16 18 18 16 15 14
1 1 1 2 2 1 2 2 2 1 3 2 1 2 3 3 3 2 3 2 3 4 1 1 5 8 7 5 2 4 6 5 7 7 7 8 8 6 6 4 3 4 5 6 5 2 2 3 5 4 8 11 9 8 9 8 9 12 14 15 14 15 15 14 14 13 11 11 14 16 17 15 12 16 21 18 12 10 11 13 14 15 15 16 17 18 18 17
3 3 2 3 2 3 1 1 1 1 2 2 1 1 2 2 2 4 3 4 4 3 1 1 6 7 5 5 6 8 7 6 8 10 9 9 9 7 6 5 6 9 9 6 5 3 2 3 5 4 6 9 7 7 11 10 11 16 19 19 18 16 13 11 9 8 8 10 14 14 12 11 12 15 17 16 11 9 11 13 13 13 14 14 15 17 18 19
3 2 2 4 2 3 2 2 2 2 0 1 1 0 2 1 2 3 3 2 2 3 3 2 5 5 4 7 9 7 6 6 9 11 9 9 11 11 10 12 12 12 10 7 5 3 4 4 4 3 6 8 5 7 9 8 9 14 14 13 15 13 10 9 9 10 12 12 11 10 10 11 14 13 12 14 13 10 10 10 11 12 13 13 14 15 16 17
Wind_Direction
1 359 357 355 353 351 348 346 345 344 343 342 339 337 335 333 332 331 329 328 326 325 323 323 323 322 321 319 316 315 315 311 306 297 282 277 278 273 270 267 267 269 272 284 287 288 297 300 308 320 343 336 225 196 220 198 161 176 162 210 220 219 217 185 196 211 231 297 296 292 298 216 240 222 191 58 60 112 92 29 22 13 22 125 142 146 155 159
359 357 356 354 352 351 348 347 344 343 342 339 338 336 333 331 329 328 327 326 325 323 322 321 320 321 321 320 318 317 314 311 307 289 282 282 276 269 267 264 261 262 266 273 274 270 277 285 316 340 352 324 254 208 196 202 179 189 179 211 224 214 206 195 215 239 254 287 303 298 294 241 241 229 195 143 161 143 109 30 12 50 43 85 124 141 152 158
358 356 356 354 352 351 349 348 345 344 343 340 338 336 333 331 328 327 326 324 324 321 322 320 320 321 319 320 320 317 317 317 308 287 293 294 278 272 268 266 261 257 262 262 261 258 256 263 294 347 319 235 272 242 207 198 193 200 187 215 226 208 210 216 223 236 238 271 303 294 297 266 243 224 294 175 170 173 154 156 132 138 143 134 138 144 151 160
357 356 355 353 353 352 351 349 347 346 344 341 338 336 333 330 327 326 324 323 322 320 321 320 320 320 318 321 318 319 328 322 296 288 334 56 37 324 292 281 275 261 258 258 257 253 248 251 269 349 250 237 256 255 229 204 188 196 201 218 215 188 220 222 218 232 234 241 256 275 313 313 282 204 226 165 151 203 208 189 178 172 166 152 153 154 156 163
357 356 355 353 352 353 353 350 348 347 344 342 338 336 333 330 327 324 323 322 321 320 319 319 319 319 319 319 315 325 344 325 297 111 92 80 25 346 335 320 311 293 267 253 247 242 237 237 220 190 233 236 222 239 233 216 205 222 217 222 205 185 220 226 219 228 217 204 230 277 301 301 316 274 207 176 174 207 217 207 190 167 160 160 160 159 160 166
357 357 355 353 353 353 353 350 348 345 342 340 338 337 334 331 327 323 322 320 320 319 318 319 318 320 319 315 314 325 357 272 306 263 188 316 317 322 325 322 316 315 298 252 229 225 222 217 212 205 216 227 216 224 239 223 215 236 234 223 217 208 218 223 222 226 198 177 217 240 270 334 357 300 239 190 209 224 215 200 182 167 162 161 157 159 165 171
357 356 355 354 354 353 352 350 347 343 341 339 337 337 335 332 329 324 321 319 319 317 318 318 317 320 318 315 313 299 204 250 275 271 274 293 301 311 318 318 312 311 310 251 211 209 208 203 207 203 214 230 220 223 241 245 229 235 239 219 217 223 222 216 214 223 233 231 233 257 309 302 254 284 308 227 245 257 246 185 163 166 158 154 156 164 172 175
357 356 355 355 354 353 351 348 346 343 340 338 336 337 335 333 331 326 321 318 318 315 317 315 316 320 317 320 317 283 247 250 264 272 282 290 297 309 316 319 316 306 305 253 209 201 196 208 212 202 215 229 234 227 228 250 244 235 235 228 214 225 228 222 213 211 232 242 263 295 289 269 243 245 304 278 264 265 262 166 150 153 152 159 168 171 175 178
357 356 355 355 353 351 349 347 345 342 339 338 336 335 332 331 330 327 322 318 316 314 314 314 315 316 312 318 313 277 267 263 270 280 291 292 294 305 313 323 325 303 287 267 231 210 197 211 212 203 223 239 254 258 232 221 240 237 235 237 223 227 227 223 219 205 220 227 229 260 260 260 259 31 276 265 255 263 291 150 150 152 163 172 176 176 178 180
357 357 356 354 350 348 346 344 343 340 338 336 334 332 329 329 327 323 321 317 315 313 312 314 312 310 305 296 268 269 282 293 295 291 288 284 284 295 305 316 328 312 278 278 253 223 211 206 191 194 256 266 254 249 240 218 249 278 263 257 241 232 224 218 223 213 217 213 193 221 250 257 267 61 267 268 275 298 53 152 157 159 172 178 180 182 182 183
358 358 355 353 349 346 344 341 340 338 336 334 333 330 326 326 325 322 320 315 314 313 313 312 307 303 294 250 239 251 284 349 329 285 281 277 279 289 296 301 316 324 300 284 261 240 228 214 185 153 243 247 257 253 248 232 258 281 279 289 270 243 230 217 221 215 214 213 187 197 237 255 258 237 245 263 293 11 110 166 161 169 178 180 182 182 186 192
359 357 354 351 348 346 343 341 339 336 332 331 330 328 324 324 324 322 318 315 315 313 315 312 302 299 288 250 240 247 267 291 289 286 283 280 280 281 284 288 294 303 304 292 271 260 244 228 211 203 229 240 279 257 256 284 298 280 272 281 279 263 242 224 219 211 205 214 180 175 225 243 237 235 239 254 263 240 214 194 169 178 180 179 184 182 191 195
357 355 352 349 346 346 344 340 337 334 330 330 330 327 324 323 323 321 317 315 315 314 315 308 297 294 282 254 254 266 280 290 291 288 283 281 279 278 276 278 282 283 286 286 282 280 269 260 233 219 241 247 252 262 303 325 306 269 255 230 264 276 249 227 219 204 198 204 163 158 220 234 225 227 230 247 244 202 204 217 192 188 181 180 182 183 195 191
355 353 351 347 344 343 340 337 336 334 332 332 331 327 324 324 324 321 314 310 313 315 313 304 300 294 255 261 279 288 293 293 288 283 281 277 275 280 279 273 271 269 269 271 283 287 275 281 262 224 240 209 235 305 326 314 244 231 221 206 231 245 241 226 216 197 198 203 157 166 231 234 216 215 218 239 241 205 197 215 210 201 190 186 185 187 194 192
353 351 348 345 343 342 339 336 336 334 334 335 332 328 326 326 324 318 310 309 313 309 303 301 295 279 274 276 285 294 292 287 288 291 293 284 273 274 275 276 271 265 267 261 276 296 280 286 277 210 225 190 195 293 311 305 276 202 206 212 211 227 242 227 217 203 202 208 160 176 234 240 216 205 201 220 230 212 202 206 204 206 199 191 194 194 195 199
350 349 345 344 344 343 340 338 336 335 337 337 332 329 328 326 324 319 307 304 307 300 300 304 275 242 280 280 291 304 291 281 293 306 309 293 275 267 268 280 282 267 262 252 264 295 277 275 271 204 203 165 151 199 258 299 275 231 215 218 209 220 237 223 219 211 206 209 180 195 225 228 221 213 194 204 212 210 211 208 196 202 207 200 199 200 201 204
349 347 343 343 344 341 339 337 337 338 339 335 331 331 330 326 325 321 304 295 312 301 289 273 251 253 258 270 289 303 292 290 304 312 310 296 281 275 270 271 279 265 261 250 255 285 243 220 246 216 180 173 150 157 204 236 230 231 216 219 221 220 226 221 213 211 207 210 207 213 225 223 236 228 201 200 203 205 215 219 217 213 207 206 207 206 208 205
348 345 342 342 341 338 336 335 337 340 338 334 331 331 331 331 328 324 19 1 333 311 272 229 256 294 260 269 284 295 304 307 309 308 309 305 289 277 260 251 270 277 291 283 224 215 190 198 232 191 168 184 177 169 199 213 206 210 206 211 225 220 224 224 216 210 204 210 217 218 228 232 249 257 211 204 201 202 208 213 227 234 219 208 212 211 211 209
348 346 344 340 338 336 335 336 337 340 339 336 335 334 341 356 341 61 83 7 345 328 267 281 161 256 277 284 287 294 305 305 304 301 308 319 301 283 244 240 263 225 266 298 206 189 175 192 182 174 182 187 194 195 206 215 211 218 223 225 231 226 231 226 224 239 197 204 222 221 233 233 228 239 225 214 203 199 204 199 212 231 230 221 219 216 211 211
348 347 345 342 340 338 338 338 337 340 340 341 345 345 1 15 2 120 29 358 315 203 251 267 237 256 277 288 294 300 309 302 290 283 292 301 288 286 254 211 232 237 230 240 242 224 173 212 206 200 203 194 196 199 204 219 243 271 307 337 302 262 253 223 209 240 192 195 223 220 234 238 223 222 222 223 213 201 204 199 202 218 223 220 219 217 211 210
346 346 343 342 340 339 340 337 337 340 338 347 4 13 26 16 360 313 330 326 242 241 243 258 261 258 265 275 285 294 309 300 274 266 280 284 246 256 268 182 166 239 226 226 255 304 30 236 226 221 223 214 207 203 202 211 233 260 290 316 308 277 266 259 226 243 202 203 226 215 227 238 228 218 213 221 221 211 207 204 209 214 216 217 214 214 212 210
345 344 342 341 340 339 338 336 337 338 337 358 23 46 41 6 341 309 320 305 292 278 245 262 269 261 267 275 285 287 274 279 286 276 267 261 169 157 249 195 189 221 207 198 244 265 266 264 253 242 251 304 283 220 205 212 223 235 251 276 277 256 282 294 250 247 218 207 230 218 225 237 231 219 213 216 218 218 211 204 210 215 218 220 214 213 213 211
344 342 342 341 339 340 337 335 336 339 348 356 6 32 18 359 342 329 323 282 299 301 255 266 269 273 285 293 317 312 251 261 290 292 257 179 148 220 209 230 219 222 190 183 213 230 242 263 255 242 234 338 280 229 197 215 228 228 227 238 256 259 272 290 257 258 254 231 231 226 235 243 234 224 217 218 222 224 217 208 211 215 219 223 218 213 211 210
342 341 342 339 338 339 334 333 337 348 349 347 343 360 357 349 343 343 340 265 299 300 254 246 241 258 289 307 334 333 273 265 269 302 300 163 161 339 202 214 216 231 209 195 206 223 234 243 37 239 204 173 230 238 195 201 225 224 223 228 238 246 236 250 308 342 318 274 249 245 266 257 230 225 222 216 223 227 224 217 216 219 226 231 228 220 217 215
341 340 339 337 337 336 332 331 342 346 343 349 9 341 342 344 341 342 10 52 315 293 273 281 255 272 303 304 317 289 251 260 234 281 288 221 190 223 233 215 209 233 222 199 192 225 242 233 103 41 53 88 346 258 216 192 216 232 224 225 233 235 246 273 312 358 345 284 245 231 250 256 221 217 224 212 218 225 225 224 219 217 224 231 231 224 222 222
339 338 338 336 335 337 337 333 338 339 338 356 351 339 340 346 339 335 36 61 331 295 318 339 329 332 322 314 313 276 235 261 250 288 323 319 25 95 292 306 250 239 218 198 184 233 254 197 196 216 221 310 355 287 239 185 195 243 213 205 223 234 243 267 290 314 252 254 267 236 244 261 238 216 221 211 217 223 221 226 224 218 217 219 226 226 219 220
338 337 337 335 335 341 342 316 326 332 328 333 340 340 340 342 337 331 49 39 347 298 318 322 325 345 327 317 327 312 305 303 296 328 15 358 17 32 316 302 276 286 195 122 135 237 145 153 183 200 204 214 234 263 254 177 194 243 229 182 200 221 231 241 258 251 232 272 294 298 178 262 257 225 214 206 213 224 221 222 224 222 221 216 221 226 220 216
337 335 335 332 332 337 329 306 316 319 312 323 332 334 330 332 334 347 84 57 331 318 300 294 308 324 309 309 350 347 300 315 328 340 173 64 53 167 237 255 241 271 82 151 231 348 97 153 171 178 190 201 213 222 239 292 255 281 351 262 199 211 222 225 239 250 254 269 279 273 141 231 266 237 211 209 209 219 220 219 220 220 222 219 218 223 222 220
335 333 333 331 330 335 327 314 310 307 320 325 327 326 322 327 338 46 76 84 286 340 182 295 328 329 326 325 333 346 306 317 341 301 342 74 42 160 209 251 249 286 341 189 239 309 35 138 138 159 194 203 219 215 217 248 267 328 348 314 243 218 220 215 218 234 253 249 248 250 214 229 266 226 206 221 212 216 218 217 220 217 220 223 219 219 219 221
334 331 332 330 329 338 335 327 321 319 325 326 322 319 319 331 37 65 40 289 275 331 286 338 338 330 347 349 334 341 339 281 268 308 338 19 331 335 181 213 247 356 312 7 255 268 273 193 152 195 195 185 142 186 212 225 236 334 347 323 309 332 342 245 210 196 235 247 237 238 231 229 258 216 194 215 210 213 217 217 221 217 217 223 221 221 220 217
334 330 330 329 327 331 326 326 335 329 325 323 320 323 333 1 66 84 43 253 264 319 321 348 334 333 350 351 324 325 334 307 298 339 345 333 339 357 38 356 19 27 351 358 311 273 285 286 208 204 165 136 114 69 309 218 175 120 357 328 314 296 310 5 354 174 220 243 230 224 224 223 238 227 196 226 222 214 218 217 218 217 212 217 219 222 224 221
335 331 329 326 322 322 312 318 333 331 323 322 326 343 56 40 34 105 267 303 331 315 324 326 323 332 336 335 334 328 330 316 315 352 348 334 357 354 358 24 39 19 350 346 337 309 280 239 236 293 132 145 140 111 50 54 122 161 194 242 203 213 228 222 232 224 230 244 225 199 214 225 243 244 224 246 254 232 227 221 217 216 214 219 222 223 228 230
337 334 338 353 348 344 339 334 334 329 321 326 343 40 79 66 27 225 294 326 297 287 301 308 316 323 328 350 347 327 331 323 332 352 337 342 13 350 336 358 55 55 324 313 344 342 328 308 303 64 337 211 156 158 181 151 166 176 185 215 192 173 206 220 220 233 237 239 214 159 199 236 259 246 207 216 236 235 233 234 223 216 217 224 224 222 226 228
342 344 4 40 25 359 355 347 338 328 326 338 29 54 63 80 272 346 359 284 248 291 305 308 315 322 354 16 326 332 348 318 341 356 344 1 20 356 349 352 17 57 105 337 351 20 18 321 275 144 321 254 189 205 204 141 155 188 160 181 236 218 215 220 208 221 237 243 236 183 199 212 232 236 195 204 217 216 219 231 235 237 241 248 253 246 239 233
347 346 21 40 20 360 355 350 344 337 338 3 60 59 73 152 255 323 327 264 258 317 309 313 325 338 354 334 310 1 13 311 342 356 345 359 5 342 351 345 347 7 349 344 338 345 53 276 279 305 294 200 219 260 193 125 162 202 130 133 238 218 163 257 229 201 221 252 258 226 227 220 241 284 277 216 202 203 211 215 224 245 257 258 261 255 248 244
3 55 51 27 10 1 358 358 359 349 359 53 68 58 108 196 217 174 225 287 306 318 315 325 348 5 340 326 328 349 352 310 336 347 338 348 352 342 347 329 333 358 16 37 12 7 11 297 300 321 312 213 233 341 17 166 254 174 142 172 255 144 127 254 267 202 201 245 234 202 226 250 274 280 272 248 189 213 224 217 213 225 231 234 239 239 240 242
9 27 36 13 3 358 358 6 358 347 30 80 80 63 199 217 198 186 320 332 312 326 353 347 347 10 342 323 323 336 342 338 344 355 348 346 339 333 350 348 348 354 315 310 67 66 9 303 297 314 319 289 299 2 319 286 320 80 162 193 15 51 105 211 273 257 229 247 221 203 216 222 238 247 224 217 231 254 255 235 224 230 231 235 240 238 238 237
354 358 15 8 0 354 359 13 338 344 49 74 63 62 85 277 247 220 347 335 314 345 28 321 313 43 13 319 303 325 341 352 360 358 345 344 327 325 7 356 346 344 302 310 37 219 218 302 298 311 303 299 341 26 305 284 227 183 243 30 87 19 258 177 217 252 246 251 235 220 222 212 217 227 211 213 220 232 240 229 223 231 231 234 238 239 240 238
7 14 9 4 2 0 8 1 343 24 66 69 50 45 160 282 285 271 284 305 312 16 355 258 258 24 8 310 277 305 336 353 352 352 347 347 333 350 48 320 311 336 305 316 18 281 254 330 285 325 352 314 358 45 308 314 299 197 358 344 156 197 250 199 216 245 230 247 253 225 221 219 220 220 214 221 223 227 235 234 228 230 228 230 235 237 241 241
31 50 299 350 359 358 342 334 4 50 70 99 152 236 285 287 282 277 274 293 295 200 261 251 282 359 310 276 271 271 322 329 326 337 285 305 329 324 355 93 326 330 313 320 352 318 22 40 255 313 358 1 346 190 173 177 304 353 346 302 273 256 288 311 270 240 200 246 273 258 240 252 250 222 215 228 234 230 232 236 238 240 239 237 237 238 241 244
24 60 308 348 358 349 346 5 24 72 90 125 153 247 296 330 281 290 299 316 249 219 254 261 253 242 236 272 285 257 302 317 311 315 265 277 346 305 348 40 1 328 330 338 345 28 28 336 253 304 342 343 262 240 196 192 207 207 227 258 298 281 280 290 261 219 207 238 259 268 267 264 262 270 261 252 263 263 253 249 249 252 252 249 249 249 249 251
48 83 303 357 6 358 27 44 308 99 110 35 350 262 302 1 359 302 321 350 315 247 326 320 247 233 228 246 271 288 330 313 278 276 266 261 251 252 314 17 3 332 346 330 314 2 11 334 306 286 273 264 269 266 231 211 209 203 234 181 105 295 292 287 280 308 316 292 290 271 261 255 256 285 346 360 334 319 321 318 301 291 287 287 288 287 282 275
70 256 295 6 9 1 51 64 319 358 41 320 317 276 301 331 330 313 333 353 336 295 330 297 237 248 242 230 287 318 326 306 262 252 265 267 253 253 289 355 8 351 354 337 317 356 11 25 343 297 282 285 289 303 358 205 166 105 310 343 92 93 88 241 266 298 300 288 300 288 267 274 303 319 332 336 328 320 325 334 324 316 316 315 312 310 307 296
357 262 283 3 7 7 69 79 349 353 338 339 343 325 322 322 52 9 335 316 306 283 304 293 254 256 262 261 308 290 279 293 243 258 276 257 246 272 302 348 3 355 354 313 322 358 350 321 347 325 320 330 330 343 3 357 20 75 287 295 236 250 293 281 259 279 283 261 241 253 269 278 306 326 322 319 320 318 316 313 300 293 294 300 312 316 312 310
340 327 268 340 6 26 86 125 70 11 355 11 336 311 333 341 324 336 310 286 280 268 271 278 267 263 283 298 320 306 283 240 227 275 288 246 261 292 317 345 349 345 287 280 289 88 240 273 290 315 291 296 305 299 310 340 343 317 293 290 267 259 288 308 300 290 288 288 269 243 272 289 295 302 307 313 318 317 314 312 307 295 266 267 296 309 309 317
32 32 305 325 3 34 74 30 41 26 9 25 320 298 14 351 306 318 321 309 334 339 290 271 293 328 352 4 358 323 299 259 245 289 298 288 281 287 327 342 332 299 286 293 295 131 138 268 209 210 232 247 261 263 268 316 312 294 294 294 287 286 292 292 281 258 254 278 281 266 272 288 288 288 297 313 310 305 305 307 310 310 298 282 291 302 306 310
77 62 2 327 343 17 29 15 31 20 339 17 306 301 7 333 306 330 348 359 347 345 318 265 20 45 20 9 359 313 312 319 303 289 292 300 301 299 322 327 301 280 295 308 343 106 69 289 223 225 242 253 263 271 282 298 289 282 288 291 287 289 294 281 253 254 262 283 278 266 254 265 275 280 282 281 281 284 287 289 295 301 302 298 296 298 302 304
52 126 88 144 218 348 351 346 4 343 317 324 215 296 340 343 7 3 337 337 348 358 5 307 16 35 19 8 357 307 318 324 304 296 325 325 324 324 325 312 285 303 359 350 12 83 106 262 234 227 250 262 267 275 283 283 274 275 278 279 280 281 278 264 254 255 253 244 255 261 253 248 264 275 273 262 263 267 270 273 279 287 292 294 295 296 297 298
38 79 329 35 136 191 239 284 307 305 303 286 261 337 356 14 35 18 309 327 333 335 10 300 338 4 353 348 356 292 300 308 290 303 340 323 318 322 318 303 296 6 46 11 342 57 160 266 260 248 274 280 276 279 284 282 277 276 270 265 267 267 260 252 251 253 248 242 250 261 262 257 263 273 272 264 257 260 265 270 274 276 279 286 291 293 290 288
89 172 305 31 39 245 240 285 308 323 323 318 264 319 352 13 23 343 281 265 279 300 348 324 321 334 327 320 309 256 258 273 276 288 312 312 310 315 306 297 318 339 347 343 324 281 201 273 290 302 295 282 275 281 283 275 271 272 269 260 253 253 254 251 249 253 256 257 258 261 266 267 262 263 267 266 259 260 266 266 266 268 269 275 282 286 287 285
131 168 153 91 21 317 314 317 345 51 346 342 121 269 337 358 346 328 291 223 223 254 98 26 323 322 315 301 285 266 264 273 276 284 297 295 288 291 287 281 300 310 305 296 286 272 229 267 292 304 282 274 278 280 276 279 279 269 260 253 247 245 248 249 246 238 235 245 254 257 260 263 259 256 264 271 267 253 254 259 262 265 267 269 273 278 282 286
128 137 134 108 54 329 355 334 347 66 273 268 142 198 287 277 300 331 325 277 245 193 142 38 325 313 310 295 281 274 279 283 280 281 280 270 266 265 263 262 268 274 273 268 269 250 225 254 279 257 263 280 281 268 279 298 287 269 257 246 249 253 251 251 248 236 228 229 241 252 249 252 263 267 270 277 276 264 253 253 257 262 265 266 267 269 274 279
Height
854 853 852 851 849 848 847 845 844 842 841 840 839 837 836 835 834 833 832 831 830 829 828 826 825 824 822 821 819 817 815 813 810 809 806 804 803 803 803 803 804 804 803 803 803 803 800 800 800 799 799 798 797 796 794 793 793 797 803 809 808 804 800 791 787 785 782 778 774 771 768 770 768 764 761 761 764 765 768 769 768 768 766 766 765 766 772 777
854 853 852 851 849 848 846 845 843 842 841 840 838 837 836 835 833 832 831 830 829 828 827 825 824 823 821 820 818 816 814 811 808 804 800 798 797 798 800 800 802 802 802 802 801 802 802 800 800 800 799 799 797 794 793 791 790 793 799 804 798 792 787 780 779 778 777 778 775 770 768 770 769 765 762 765 770 768 769 774 772 771 770 769 767 769 773 776
854 853 852 850 849 847 846 844 843 842 840 839 838 837 836 834 833 831 830 829 828 827 825 824 823 822 821 819 818 816 813 810 806 799 792 790 792 795 797 798 800 800 800 800 799 800 801 800 800 801 801 800 796 794 793 789 788 787 791 797 788 781 780 775 775 775 774 775 774 771 767 768 767 764 764 766 770 769 768 772 772 772 773 772 770 770 773 776
854 853 852 850 849 847 845 844 842 841 840 839 838 836 835 834 832 831 829 828 826 825 824 823 822 821 820 819 818 816 813 811 803 794 789 787 791 795 798 798 798 798 797 797 798 799 799 800 800 801 801 800 795 793 792 786 784 783 782 783 777 777 779 772 771 771 771 772 772 771 768 768 765 763 765 767 772 772 768 764 762 765 769 771 771 771 772 776
854 853 852 850 848 846 845 843 842 840 839 838 837 836 834 833 831 830 828 827 825 824 823 822 821 820 819 818 817 815 817 814 799 791 790 787 790 794 796 797 796 795 794 794 795 796 798 798 799 801 801 799 795 793 789 781 779 781 775 772 770 773 775 767 767 769 768 770 770 770 770 767 764 764 765 766 769 767 761 757 755 757 762 765 767 769 772 775
854 853 851 850 848 846 844 843 841 840 839 837 836 835 833 832 830 828 827 825 824 823 822 821 820 819 818 817 817 816 820 815 796 791 791 787 789 791 792 792 792 792 790 790 791 794 795 796 798 800 799 796 794 790 786 779 778 780 774 769 769 768 769 765 765 768 768 769 770 769 768 766 768 768 764 764 763 755 751 751 753 754 756 758 762 767 770 773
854 852 851 849 848 846 844 843 841 840 838 837 835 833 832 830 829 827 825 824 823 822 821 820 819 818 817 816 816 815 818 810 794 791 791 790 790 790 790 789 789 790 788 787 788 790 792 794 796 797 796 794 790 787 784 780 777 778 774 768 768 765 764 763 763 768 770 770 769 767 767 767 771 771 764 763 759 752 750 750 753 755 756 759 762 764 766 769
853 852 851 849 847 846 844 843 841 840 838 836 834 833 831 829 827 826 824 823 821 821 820 819 818 817 816 815 815 816 813 802 791 790 793 793 791 790 790 788 788 788 787 786 785 787 790 791 793 793 795 791 785 783 782 782 779 776 772 767 766 764 761 762 763 766 770 770 769 768 769 766 767 768 765 762 757 752 750 750 753 757 759 761 762 763 765 767
853 852 850 849 847 845 844 842 841 839 837 835 833 831 830 828 826 824 823 821 820 819 818 818 817 816 816 814 816 816 803 792 790 792 794 793 790 791 790 789 788 787 786 786 784 785 787 787 788 789 792 788 784 782 779 784 780 771 769 767 765 763 760 761 762 763 766 768 770 772 771 766 762 766 764 757 753 751 751 751 753 757 761 761 762 762 763 766
853 851 850 848 847 845 843 842 840 838 836 834 832 830 828 826 824 822 821 820 818 818 816 816 815 814 814 813 817 812 793 789 794 793 792 791 790 790 789 789 788 787 786 785 784 783 782 784 785 787 789 786 783 781 778 780 776 768 769 768 764 762 759 759 759 759 761 763 768 774 773 766 762 768 767 755 750 751 752 754 753 756 759 759 761 761 762 763
852 851 850 848 846 845 843 841 839 837 835 833 831 829 827 824 822 821 819 818 817 816 815 815 813 813 812 812 814 805 790 791 793 791 790 789 789 788 788 788 788 788 787 784 783 782 781 782 783 786 787 783 781 780 776 774 772 769 771 771 766 761 758 756 756 756 759 760 762 768 772 768 765 770 768 755 752 754 755 756 755 756 758 758 759 760 762 762
852 850 849 848 846 844 842 840 838 836 834 832 830 827 824 822 820 819 818 817 816 815 814 813 812 811 811 810 806 797 791 792 791 789 789 788 787 786 786 787 786 787 787 785 783 781 781 781 782 785 783 782 783 780 775 771 771 770 770 775 771 764 760 754 752 753 756 757 755 764 776 774 767 766 762 755 753 755 757 758 756 756 757 758 759 760 761 762
852 850 849 848 846 844 842 840 837 835 833 830 828 825 822 819 818 817 816 815 815 814 813 812 811 810 811 806 797 793 793 791 789 787 786 786 785 783 784 785 785 786 786 785 782 780 782 781 783 783 780 783 785 778 772 771 771 769 769 774 773 772 765 752 749 750 753 753 749 762 778 770 760 759 756 752 752 755 758 758 757 756 756 757 758 760 760 762
851 850 849 847 846 844 841 838 836 834 831 828 825 823 820 817 816 815 814 814 813 813 812 811 810 810 810 802 792 792 792 789 788 785 783 783 782 780 781 783 783 783 783 783 781 780 781 780 782 782 780 781 781 778 776 774 771 768 769 773 775 776 765 749 748 750 752 751 745 758 770 758 750 752 751 750 750 753 756 756 757 756 756 756 756 758 759 759
851 850 849 847 845 843 840 838 835 832 830 827 823 821 818 816 814 813 813 813 812 812 810 810 809 809 810 800 791 791 790 788 787 784 782 782 781 779 778 780 781 780 781 781 780 780 779 780 781 781 779 778 780 783 783 778 771 767 769 773 773 771 762 750 747 747 750 750 745 755 763 753 746 745 745 748 749 751 753 752 753 754 755 755 755 756 756 756
851 850 848 846 844 842 840 837 834 831 828 825 822 819 816 814 812 811 811 811 811 810 809 810 808 810 811 799 790 789 788 787 785 783 782 781 780 778 776 779 779 778 779 779 779 779 779 780 780 778 776 777 780 784 785 784 777 768 766 767 765 766 764 756 747 742 744 748 747 750 754 751 745 740 739 742 744 748 751 750 750 752 752 753 754 754 754 754
851 849 848 846 844 841 839 836 833 830 827 823 820 817 814 812 811 810 810 810 810 808 808 809 808 809 806 794 790 789 787 786 784 783 782 780 779 777 777 779 778 778 777 777 777 777 778 779 778 776 775 776 778 781 788 789 781 771 766 762 757 757 761 758 750 741 740 746 749 748 748 747 743 739 737 737 739 744 748 749 748 749 750 750 751 752 752 752
850 849 847 845 843 840 838 835 832 829 826 822 819 816 813 811 810 809 809 810 808 807 808 807 809 810 800 790 791 790 787 786 784 783 781 779 779 777 777 778 777 778 777 777 777 776 778 778 777 775 775 778 777 779 785 781 772 769 765 761 756 753 755 756 751 743 741 745 748 750 750 746 742 740 738 735 736 740 743 744 745 745 747 748 749 750 749 750
850 848 846 844 842 839 837 834 831 829 825 821 818 814 811 809 808 808 808 810 809 809 809 807 809 811 800 791 791 790 787 787 784 782 781 780 780 778 778 778 777 778 780 780 776 775 777 778 779 777 776 778 775 774 775 768 763 764 763 762 759 756 752 751 748 741 741 749 750 750 749 746 745 743 739 736 735 737 740 741 744 744 742 745 747 747 746 747
849 847 845 843 841 838 836 833 830 828 825 822 818 813 811 812 812 810 808 810 811 811 810 806 807 808 801 793 790 789 788 786 783 782 780 780 780 780 779 778 779 780 782 782 777 774 776 777 778 776 770 768 767 766 766 765 764 766 768 769 765 762 756 748 746 740 739 749 751 747 746 744 744 742 739 737 735 736 738 739 741 741 739 741 744 744 743 743
849 847 845 842 840 837 835 832 830 828 826 823 819 816 819 822 822 818 812 810 808 807 807 804 804 804 799 794 790 789 789 786 782 780 780 779 779 781 780 778 780 781 779 780 779 775 777 777 775 772 767 764 764 763 764 766 767 769 772 774 771 769 762 750 745 741 738 747 748 744 745 742 739 740 737 736 736 736 736 737 737 737 737 737 738 739 739 738
849 847 844 842 839 837 834 832 829 828 826 824 822 822 825 827 827 825 821 816 807 803 805 802 801 801 796 793 790 789 791 789 783 778 778 778 779 781 780 778 780 778 776 779 780 779 780 778 770 767 768 769 768 765 766 768 767 770 773 775 773 768 762 753 745 740 740 748 748 744 746 742 735 736 734 732 733 732 730 732 733 732 733 733 734 735 736 736
848 846 844 841 839 836 834 831 829 828 826 825 825 825 826 826 825 825 824 822 812 802 801 800 799 798 794 791 790 789 791 790 785 779 777 778 779 780 781 780 779 777 776 778 780 781 779 773 766 764 767 771 771 766 767 770 769 771 772 775 774 766 764 759 749 743 741 744 745 743 745 740 734 734 733 730 728 726 726 727 727 727 728 728 729 730 732 734
848 845 843 841 838 836 833 830 829 827 825 825 825 825 826 826 825 824 823 824 818 806 800 798 797 796 794 791 790 791 791 789 786 781 778 779 779 779 780 779 779 779 778 776 777 778 775 767 764 765 767 770 773 769 767 771 772 771 771 772 770 767 766 762 756 752 747 743 740 744 750 744 736 737 734 729 726 724 723 723 725 726 725 725 726 727 728 729
847 844 842 840 838 835 832 829 828 827 826 825 825 825 825 824 824 823 823 825 818 805 799 797 796 795 793 792 790 790 791 788 784 781 779 779 779 779 779 778 779 778 775 774 777 777 771 765 765 769 770 769 773 774 769 769 771 771 768 767 767 767 766 763 762 761 761 757 742 744 757 748 734 737 734 729 728 725 722 721 722 724 725 725 725 725 726 726
846 843 841 839 837 834 831 829 828 827 826 825 825 824 823 823 823 821 825 830 819 804 800 797 796 796 792 792 790 788 791 787 780 780 780 779 780 780 779 778 777 775 773 773 774 773 768 764 766 770 771 771 775 776 770 765 771 772 763 760 764 767 767 766 766 768 770 764 745 743 759 752 735 734 732 729 729 725 722 721 720 720 722 723 723 722 723 723
845 842 840 838 835 834 832 830 829 828 827 825 825 824 823 822 823 821 822 826 818 807 805 799 796 797 794 792 790 788 790 785 778 779 780 779 779 780 780 779 777 774 774 776 773 770 767 765 767 768 770 774 776 775 769 765 769 769 758 756 762 765 767 766 767 771 769 762 751 748 760 762 747 735 728 727 730 727 724 722 719 717 717 718 719 718 719 720
844 842 839 837 835 834 833 831 830 828 827 826 824 823 823 821 822 822 821 823 818 810 809 803 797 796 794 792 791 790 790 786 783 780 778 779 778 780 781 779 777 774 774 777 773 768 768 769 768 768 772 775 772 768 768 769 770 765 760 760 759 759 762 763 767 770 767 766 764 755 758 766 753 734 727 726 728 728 725 721 717 715 714 714 715 715 716 717
842 840 838 836 834 833 832 831 830 828 827 825 824 823 822 821 821 822 823 823 817 811 811 804 797 796 796 793 791 792 791 789 787 781 778 780 779 778 780 779 777 775 774 776 773 770 770 770 769 769 771 772 768 764 766 772 773 766 764 761 757 758 758 760 765 767 767 771 769 757 755 763 752 733 729 730 728 725 721 717 713 711 711 711 712 713 714 715
841 838 837 835 833 831 831 830 828 828 826 824 824 822 821 822 822 822 825 825 818 813 810 805 801 800 800 798 793 791 791 789 787 783 780 780 779 778 778 778 779 776 774 776 776 773 769 769 769 767 767 766 766 766 765 768 770 767 768 762 758 759 759 761 765 765 767 768 761 753 750 759 754 733 726 728 723 718 715 714 712 709 709 710 710 711 712 712
839 836 835 833 832 831 830 829 828 827 825 824 823 821 821 823 824 826 828 824 819 816 813 810 808 804 805 807 801 793 791 789 786 786 784 781 780 779 777 777 779 777 775 775 775 772 770 770 766 761 761 762 765 769 766 766 768 770 774 770 765 761 758 765 768 767 771 763 750 745 745 754 753 734 722 720 714 711 712 712 710 709 710 710 709 709 709 709
837 834 833 832 831 831 830 828 827 825 825 824 822 823 822 821 826 834 831 823 822 823 819 816 811 808 810 809 803 799 796 792 787 787 788 786 783 780 779 782 782 780 779 779 776 768 765 767 764 760 760 761 763 767 771 772 771 774 777 777 776 770 765 770 770 766 767 756 743 742 745 748 741 726 720 719 713 711 710 708 707 708 709 708 708 708 707 708
835 833 831 831 830 830 829 828 826 825 825 823 823 825 822 821 829 838 836 830 829 826 821 818 814 814 813 806 804 804 799 793 790 789 787 787 786 783 783 785 785 784 783 784 780 770 764 763 763 763 762 760 759 761 766 769 772 775 773 773 774 770 772 776 769 763 759 750 742 742 746 745 732 717 712 712 710 709 708 707 706 705 705 705 705 706 707 707
834 832 831 831 830 829 828 827 826 825 824 823 825 823 821 828 835 836 835 835 831 824 821 821 820 815 811 808 808 807 803 796 793 793 789 788 789 788 786 785 785 786 785 783 781 778 775 768 763 763 762 761 758 755 754 758 767 771 765 769 771 763 766 768 760 760 756 747 746 747 747 742 727 711 703 703 704 704 705 706 704 704 704 704 704 705 705 705
833 832 832 831 831 829 828 827 826 826 825 824 825 826 829 839 843 838 836 833 829 826 824 823 823 816 811 811 810 808 808 803 797 796 792 792 794 793 790 788 786 787 786 784 783 783 782 773 764 764 763 762 759 753 750 754 764 766 763 771 770 758 763 765 756 753 750 748 751 749 743 730 716 707 701 702 703 702 703 702 703 705 704 704 706 704 704 704
832 832 832 831 831 830 828 828 826 826 826 824 827 834 837 838 839 838 834 829 828 829 828 826 823 819 818 817 812 809 810 807 803 802 796 794 795 793 792 790 788 788 786 787 789 790 789 778 766 763 761 760 761 758 756 757 759 761 764 768 762 754 762 766 758 749 751 758 750 738 736 730 720 712 702 703 706 704 704 703 702 703 701 702 704 703 703 702
833 832 832 831 831 830 828 828 827 826 826 826 829 836 838 834 833 834 830 828 829 828 830 832 825 820 825 825 818 814 812 808 808 808 804 799 795 792 793 791 790 790 787 788 791 792 795 785 769 765 763 760 762 762 760 759 761 764 764 761 758 759 762 765 764 755 756 761 745 728 730 732 729 718 701 701 708 707 706 705 703 702 701 702 701 701 701 700
834 833 833 833 831 830 829 828 828 827 827 829 832 835 835 833 832 831 830 829 830 828 830 834 827 824 829 830 823 818 815 813 813 812 809 805 798 793 795 794 792 791 789 790 789 788 793 790 773 766 768 764 762 763 760 757 760 764 762 758 760 764 763 764 768 761 756 756 743 729 728 727 726 718 703 702 705 702 701 701 702 702 700 700 698 696 697 696
834 834 834 834 832 831 830 829 829 828 829 833 837 836 836 835 832 831 831 830 829 829 831 832 829 829 830 829 827 822 817 816 817 815 813 810 802 794 796 798 793 791 792 791 790 787 789 794 784 770 769 767 762 764 765 761 758 761 764 764 763 765 762 759 759 755 753 752 742 734 730 723 715 708 704 704 701 699 698 698 700 700 698 697 695 693 692 691
835 836 836 835 833 832 831 830 830 830 832 837 840 838 837 836 832 830 830 829 828 829 830 830 831 832 829 827 827 824 819 816 816 817 814 811 805 796 794 797 794 792 791 789 790 790 787 794 792 777 771 770 765 764 767 767 765 765 767 767 765 763 762 760 758 754 754 753 746 742 738 723 709 703 703 702 699 698 698 697 697 695 694 695 693 692 690 688
836 837 837 835 833 833 832 831 833 834 836 840 840 838 836 834 831 830 828 828 829 827 828 829 829 830 829 827 825 823 820 818 816 816 813 810 808 801 795 797 798 796 794 789 790 793 790 793 794 787 782 776 767 763 764 765 765 766 766 767 766 765 764 763 757 750 751 750 746 746 741 723 708 704 703 703 703 701 700 700 698 694 692 692 690 690 689 687
838 837 837 835 834 833 833 834 836 837 838 838 838 837 834 832 831 831 830 830 830 827 828 829 828 828 828 826 824 822 822 820 816 816 814 811 809 803 798 799 800 798 797 794 792 794 795 795 795 793 788 778 768 765 766 767 765 765 766 766 766 767 768 768 760 754 757 755 747 747 741 721 706 705 708 711 713 711 709 708 704 699 697 695 693 692 690 689
843 841 837 835 835 834 834 837 839 839 839 838 836 836 834 833 833 833 832 832 831 829 829 828 826 826 825 824 824 823 823 822 817 814 814 812 808 803 800 801 801 799 798 798 796 796 796 796 797 793 783 774 767 764 768 770 767 768 769 766 767 767 767 771 769 767 769 763 755 756 748 726 711 710 713 714 714 713 712 711 709 706 703 699 697 695 693 691
846 845 840 836 835 834 836 840 843 843 843 842 840 837 836 834 834 835 835 834 832 830 829 827 825 825 824 823 824 823 823 823 818 813 812 812 807 802 800 800 802 801 801 800 799 799 799 798 800 802 795 783 768 760 765 769 767 769 769 767 768 767 767 771 770 768 768 759 754 760 754 732 718 716 717 714 713 712 710 709 709 709 705 701 698 697 696 694
845 843 841 839 836 836 839 843 845 846 846 847 845 841 839 837 835 835 835 834 832 831 830 828 824 824 825 824 824 823 822 823 820 813 811 811 806 801 800 800 801 801 800 798 797 800 803 801 802 809 811 803 785 772 772 774 771 770 769 766 767 766 768 770 769 772 771 759 753 760 755 737 723 721 721 719 717 714 709 705 704 704 704 701 698 697 695 693
844 843 844 843 839 840 844 845 847 847 848 851 849 844 843 843 838 836 834 834 834 832 831 828 825 826 829 828 829 828 823 822 821 817 814 812 808 804 802 801 802 801 798 796 796 799 803 802 800 802 804 801 792 781 777 778 778 775 772 769 769 768 769 771 775 778 773 763 758 756 752 743 730 723 724 723 721 718 713 708 704 702 701 701 699 697 694 692
847 849 851 849 844 844 847 848 851 851 850 852 850 845 846 846 843 839 836 836 836 834 832 829 828 834 837 837 838 834 826 825 825 821 818 814 809 807 805 803 803 800 796 797 797 800 804 803 798 798 796 791 787 783 780 783 783 780 777 774 772 771 772 775 778 772 766 769 767 752 746 748 734 720 723 725 720 717 714 710 706 703 700 697 697 696 693 691
850 852 854 853 850 850 850 850 853 854 852 852 850 846 846 847 847 847 844 840 838 837 835 832 833 840 844 844 844 839 833 832 827 821 820 818 814 813 811 805 801 798 798 799 798 802 808 803 796 796 794 789 787 786 785 786 785 781 780 777 774 773 774 775 773 765 762 770 765 748 743 746 733 720 720 721 718 715 711 707 705 703 700 695 693 693 692 689
853 854 855 855 854 855 855 853 854 854 852 851 849 847 848 849 851 853 850 846 842 839 839 839 840 845 847 846 846 843 840 837 831 826 825 825 823 821 817 809 803 800 801 803 803 804 807 801 793 793 793 788 787 785 784 787 787 782 779 776 773 771 770 769 766 760 759 761 755 746 745 743 734 723 716 714 715 713 709 707 705 702 699 694 690 689 688 685
855 855 856 856 856 856 856 854 853 853 851 850 850 849 851 852 854 855 853 850 846 843 842 843 846 848 847 846 847 845 839 837 836 832 830 829 827 824 820 813 807 805 806 808 808 806 805 800 792 794 796 790 785 784 782 783 782 779 773 768 766 766 764 764 762 759 761 761 754 750 749 743 732 722 712 708 711 712 709 708 704 701 698 695 691 687 682 680
854 855 856 857 856 856 856 855 854 854 852 851 851 852 852 852 854 856 853 848 846 845 844 847 849 848 847 846 846 843 838 837 837 834 832 832 829 826 823 815 812 813 812 811 810 806 806 802 795 798 799 787 782 784 779 775 777 774 764 757 756 758 758 757 757 756 758 758 753 752 751 740 724 715 710 706 707 710 709 706 703 700 698 696 693 689 683 679
853 854 855 856 856 857 858 857 857 855 852 852 853 853 853 853 854 855 851 846 845 844 844 847 849 849 848 845 842 838 836 836 835 831 830 829 825 823 821 816 814 816 813 811 810 806 805 803 800 802 798 784 780 780 775 778 782 764 746 746 750 752 753 753 751 748 746 747 748 746 739 726 714 710 710 706 704 706 706 703 701 698 695 694 692 689 686 682